QPF
0.01 0.01 0.01 0.02 0.02 0.02 0.01 0.00 0.00 0.00 0.00 0.00 0.00 0.01 0.00 0.00 0.00 0.00 0.00 0.00 0.00 0.01 0.01 0.00 0.00 0.00 0.01 0.00 0.01 0.02 0.02 0.02 0.03 0.03 0.04 0.04 0.04 0.04 0.05 0.04 0.02 0.02 0.01 0.02
0.01 0.01 0.01 0.01 0.01 0.01 0.01 0.01 0.00 0.00 0.00 0.00 0.00 0.01 0.00 0.00 0.01 0.00 0.01 0.01 0.01 0.01 0.01 0.00 0.00 0.00 0.00 0.00 0.01 0.01 0.02 0.04 0.04 0.03 0.04 0.04 0.05 0.04 0.03 0.02 0.02 0.01 0.01 0.02
0.01 0.01 0.01 0.01 0.01 0.01 0.01 0.01 0.01 0.01 0.00 0.00 0.01 0.01 0.00 0.00 0.01 0.01 0.02 0.02 0.02 0.01 0.01 0.01 0.01 0.00 0.00 0.00 0.01 0.01 0.01 0.03 0.04 0.03 0.03 0.03 0.03 0.02 0.02 0.02 0.02 0.02 0.02 0.03
0.02 0.00 0.00 0.01 0.00 0.00 0.00 0.00 0.00 0.01 0.01 0.01 0.01 0.01 0.00 0.00 0.01 0.02 0.02 0.02 0.01 0.00 0.01 0.01 0.00 0.00 0.00 0.00 0.00 0.01 0.01 0.02 0.03 0.04 0.03 0.03 0.03 0.02 0.02 0.03 0.03 0.03 0.03 0.03
0.02 0.02 0.01 0.01 0.01 0.00 0.00 0.00 0.00 0.00 0.01 0.01 0.00 0.00 0.00 0.00 0.01 0.02 0.01 0.01 0.00 0.00 0.01 0.00 0.00 0.01 0.01 0.01 0.01 0.01 0.02 0.02 0.04 0.03 0.02 0.02 0.02 0.02 0.02 0.02 0.03 0.04 0.04 0.03
0.02 0.03 0.02 0.01 0.01 0.00 0.00 0.00 0.00 0.00 0.00 0.01 0.00 0.00 0.00 0.00 0.01 0.01 0.01 0.00 0.00 0.00 0.00 0.00 0.01 0.01 0.01 0.01 0.01 0.01 0.02 0.03 0.05 0.04 0.01 0.01 0.01 0.01 0.01 0.02 0.02 0.02 0.03 0.03
0.00 0.01 0.01 0.01 0.01 0.01 0.00 0.00 0.00 0.01 0.00 0.00 0.00 0.00 0.00 0.00 0.00 0.00 0.00 0.01 0.00 0.00 0.00 0.00 0.00 0.01 0.01 0.01 0.01 0.01 0.01 0.02 0.03 0.02 0.02 0.02 0.02 0.01 0.01 0.02 0.03 0.02 0.02 0.02
0.00 0.00 0.01 0.01 0.01 0.01 0.00 0.00 0.00 0.00 0.00 0.00 0.00 0.00 0.00 0.00 0.00 0.00 0.00 0.00 0.00 0.00 0.00 0.00 0.00 0.00 0.01 0.01 0.01 0.01 0.02 0.01 0.02 0.02 0.03 0.02 0.03 0.02 0.03 0.04 0.04 0.03 0.02 0.01
0.00 0.00 0.00 0.00 0.01 0.01 0.00 0.00 0.00 0.00 0.00 0.00 0.00 0.00 0.00 0.00 0.00 0.00 0.00 0.00 0.00 0.00 0.00 0.00 0.00 0.01 0.01 0.01 0.01 0.01 0.01 0.02 0.02 0.03 0.04 0.04 0.04 0.04 0.04 0.05 0.05 0.03 0.03 0.03
0.00 0.00 0.01 0.01 0.01 0.01 0.00 0.00 0.00 0.00 0.00 0.00 0.00 0.00 0.00 0.00 0.00 0.00 0.00 0.00 0.00 0.00 0.00 0.00 0.00 0.00 0.01 0.00 0.01 0.01 0.02 0.02 0.03 0.02 0.03 0.03 0.03 0.03 0.04 0.04 0.03 0.03 0.03 0.03
0.00 0.01 0.01 0.01 0.01 0.01 0.00 0.00 0.00 0.00 0.00 0.00 0.00 0.00 0.00 0.00 0.00 0.00 0.00 0.00 0.00 0.00 0.00 0.00 0.00 0.00 0.00 0.00 0.00 0.01 0.01 0.01 0.03 0.04 0.04 0.03 0.03 0.03 0.02 0.02 0.02 0.02 0.03 0.03
0.00 0.00 0.01 0.01 0.01 0.01 0.00 0.00 0.00 0.00 0.00 0.00 0.00 0.00 0.00 0.00 0.00 0.00 0.00 0.00 0.00 0.00 0.00 0.00 0.00 0.00 0.00 0.01 0.01 0.01 0.01 0.02 0.03 0.04 0.04 0.03 0.03 0.03 0.02 0.01 0.01 0.01 0.02 0.02
0.00 0.00 0.00 0.00 0.01 0.00 0.00 0.00 0.00 0.00 0.00 0.00 0.00 0.00 0.00 0.00 0.00 0.00 0.00 0.00 0.00 0.00 0.00 0.00 0.00 0.00 0.00 0.00 0.01 0.01 0.02 0.03 0.03 0.03 0.04 0.03 0.03 0.03 0.02 0.03 0.02 0.01 0.01 0.02
0.00 0.00 0.00 0.00 0.00 0.00 0.00 0.00 0.00 0.00 0.00 0.00 0.00 0.00 0.00 0.00 0.00 0.00 0.00 0.00 0.00 0.00 0.00 0.00 0.00 0.00 0.00 0.00 0.00 0.01 0.03 0.03 0.02 0.02 0.03 0.03 0.03 0.03 0.03 0.02 0.02 0.01 0.02 0.02
0.00 0.00 0.00 0.00 0.00 0.00 0.00 0.00 0.00 0.00 0.00 0.00 0.00 0.00 0.00 0.00 0.00 0.00 0.00 0.00 0.00 0.00 0.00 0.00 0.00 0.00 0.00 0.00 0.00 0.01 0.02 0.01 0.01 0.02 0.02 0.03 0.03 0.04 0.03 0.02 0.02 0.02 0.01 0.01
0.00 0.00 0.00 0.00 0.00 0.00 0.00 0.00 0.00 0.00 0.00 0.00 0.00 0.00 0.00 0.00 0.00 0.00 0.00 0.00 0.00 0.00 0.00 0.00 0.00 0.00 0.00 0.00 0.01 0.01 0.01 0.01 0.01 0.02 0.02 0.03 0.05 0.05 0.03 0.02 0.02 0.02 0.02 0.02
0.00 0.00 0.00 0.00 0.00 0.00 0.00 0.00 0.00 0.00 0.00 0.00 0.00 0.00 0.00 0.00 0.00 0.00 0.00 0.00 0.00 0.00 0.00 0.00 0.01 0.00 0.00 0.01 0.01 0.01 0.01 0.01 0.01 0.02 0.03 0.06 0.07 0.05 0.03 0.02 0.02 0.02 0.02 0.01
0.00 0.00 0.00 0.00 0.00 0.00 0.00 0.00 0.00 0.00 0.00 0.00 0.00 0.00 0.00 0.00 0.00 0.00 0.00 0.00 0.00 0.00 0.00 0.00 0.00 0.00 0.01 0.01 0.01 0.01 0.01 0.02 0.03 0.05 0.09 0.12 0.11 0.07 0.04 0.02 0.02 0.02 0.01 0.01
0.00 0.00 0.00 0.00 0.00 0.00 0.00 0.00 0.00 0.00 0.00 0.00 0.00 0.00 0.00 0.00 0.00 0.00 0.00 0.00 0.00 0.00 0.00 0.00 0.01 0.01 0.01 0.01 0.01 0.02 0.05 0.08 0.09 0.09 0.08 0.07 0.06 0.04 0.03 0.02 0.02 0.01 0.01 0.01
0.00 0.00 0.00 0.00 0.00 0.00 0.00 0.00 0.00 0.01 0.01 0.00 0.01 0.01 0.01 0.01 0.00 0.00 0.01 0.01 0.01 0.01 0.01 0.01 0.01 0.02 0.01 0.02 0.01 0.02 0.07 0.09 0.08 0.07 0.06 0.04 0.03 0.02 0.02 0.02 0.02 0.02 0.01 0.01
0.00 0.00 0.00 0.00 0.00 0.00 0.00 0.00 0.01 0.02 0.02 0.01 0.01 0.01 0.01 0.01 0.01 0.01 0.01 0.01 0.01 0.01 0.01 0.01 0.02 0.02 0.02 0.02 0.01 0.03 0.04 0.03 0.02 0.02 0.02 0.02 0.03 0.02 0.01 0.02 0.02 0.03 0.03 0.02
0.00 0.00 0.00 0.00 0.00 0.00 0.00 0.00 0.01 0.01 0.01 0.01 0.01 0.01 0.01 0.01 0.01 0.01 0.01 0.01 0.01 0.02 0.01 0.02 0.02 0.02 0.02 0.01 0.01 0.01 0.01 0.01 0.01 0.01 0.01 0.02 0.02 0.02 0.02 0.03 0.03 0.04 0.05 0.05
0.00 0.00 0.00 0.00 0.00 0.00 0.00 0.00 0.00 0.00 0.00 0.01 0.01 0.01 0.01 0.01 0.01 0.00 0.00 0.00 0.01 0.02 0.02 0.02 0.02 0.01 0.01 0.01 0.01 0.01 0.01 0.01 0.01 0.01 0.01 0.01 0.01 0.02 0.03 0.03 0.02 0.03 0.05 0.06
0.00 0.00 0.00 0.00 0.00 0.00 0.00 0.00 0.00 0.00 0.00 0.00 0.01 0.01 0.01 0.00 0.00 0.00 0.00 0.00 0.00 0.00 0.01 0.02 0.02 0.02 0.01 0.01 0.01 0.01 0.01 0.01 0.02 0.02 0.02 0.02 0.03 0.03 0.04 0.04 0.02 0.01 0.02 0.03
0.00 0.00 0.00 0.00 0.00 0.00 0.00 0.00 0.00 0.00 0.00 0.00 0.01 0.00 0.00 0.00 0.00 0.01 0.01 0.01 0.01 0.01 0.01 0.01 0.02 0.02 0.02 0.02 0.01 0.01 0.01 0.02 0.02 0.03 0.03 0.03 0.03 0.04 0.04 0.04 0.03 0.02 0.02 0.02
0.00 0.00 0.00 0.00 0.00 0.00 0.00 0.00 0.00 0.00 0.01 0.00 0.00 0.00 0.00 0.00 0.00 0.00 0.01 0.01 0.01 0.01 0.01 0.01 0.01 0.02 0.02 0.02 0.01 0.01 0.02 0.02 0.02 0.03 0.03 0.03 0.03 0.03 0.04 0.03 0.02 0.02 0.02 0.01
MSLP
1009.34 1010.07 1010.74 1011.32 1011.84 1012.30 1012.75 1013.18 1013.62 1014.06 1014.47 1014.84 1015.15 1015.39 1015.58 1015.71 1015.83 1015.94 1016.06 1016.18 1016.29 1016.39 1016.43 1016.42 1016.34 1016.21 1016.04 1015.86 1015.69 1015.57 1015.49 1015.46 1015.48 1015.53 1015.59 1015.66 1015.73 1015.81 1015.90 1016.01 1016.14 1016.30 1016.47 1016.64
1009.90 1010.53 1011.08 1011.54 1011.93 1012.31 1012.69 1013.09 1013.53 1013.99 1014.44 1014.84 1015.18 1015.43 1015.60 1015.72 1015.81 1015.89 1016.00 1016.14 1016.29 1016.44 1016.56 1016.62 1016.61 1016.53 1016.38 1016.21 1016.02 1015.86 1015.74 1015.67 1015.63 1015.63 1015.65 1015.66 1015.67 1015.68 1015.69 1015.71 1015.76 1015.84 1015.95 1016.08
1010.40 1010.92 1011.34 1011.68 1011.98 1012.27 1012.61 1013.02 1013.48 1013.98 1014.47 1014.90 1015.25 1015.49 1015.63 1015.70 1015.74 1015.79 1015.87 1016.02 1016.21 1016.42 1016.62 1016.77 1016.85 1016.83 1016.74 1016.59 1016.41 1016.23 1016.08 1015.97 1015.91 1015.86 1015.84 1015.81 1015.76 1015.71 1015.64 1015.58 1015.55 1015.55 1015.59 1015.67
1010.78 1011.19 1011.51 1011.75 1011.97 1012.23 1012.56 1012.98 1013.49 1014.04 1014.57 1015.03 1015.37 1015.58 1015.67 1015.66 1015.63 1015.61 1015.66 1015.80 1016.02 1016.29 1016.57 1016.82 1017.00 1017.07 1017.05 1016.94 1016.79 1016.61 1016.45 1016.32 1016.24 1016.18 1016.13 1016.07 1016.00 1015.90 1015.78 1015.66 1015.56 1015.48 1015.46 1015.47
1011.04 1011.35 1011.58 1011.75 1011.94 1012.18 1012.54 1013.01 1013.57 1014.17 1014.74 1015.21 1015.53 1015.69 1015.70 1015.60 1015.48 1015.38 1015.37 1015.49 1015.72 1016.04 1016.41 1016.75 1017.02 1017.19 1017.24 1017.20 1017.08 1016.92 1016.77 1016.64 1016.55 1016.50 1016.45 1016.40 1016.32 1016.21 1016.07 1015.92 1015.77 1015.64 1015.55 1015.51
1011.17 1011.41 1011.57 1011.71 1011.88 1012.15 1012.55 1013.07 1013.69 1014.34 1014.93 1015.40 1015.69 1015.78 1015.70 1015.51 1015.28 1015.09 1015.02 1015.10 1015.34 1015.69 1016.12 1016.54 1016.91 1017.16 1017.29 1017.30 1017.23 1017.11 1016.98 1016.87 1016.80 1016.77 1016.75 1016.73 1016.68 1016.59 1016.46 1016.30 1016.13 1015.97 1015.84 1015.75
1011.21 1011.39 1011.52 1011.64 1011.83 1012.13 1012.57 1013.15 1013.82 1014.50 1015.10 1015.55 1015.80 1015.82 1015.65 1015.36 1015.03 1014.76 1014.63 1014.67 1014.90 1015.27 1015.74 1016.23 1016.66 1016.99 1017.18 1017.26 1017.23 1017.15 1017.05 1016.98 1016.95 1016.95 1016.98 1017.01 1017.01 1016.97 1016.88 1016.74 1016.57 1016.40 1016.24 1016.11
1011.19 1011.33 1011.43 1011.56 1011.77 1012.11 1012.59 1013.21 1013.91 1014.60 1015.19 1015.61 1015.80 1015.76 1015.52 1015.15 1014.75 1014.41 1014.23 1014.24 1014.45 1014.83 1015.33 1015.85 1016.33 1016.71 1016.96 1017.08 1017.11 1017.07 1017.01 1016.98 1016.99 1017.05 1017.13 1017.22 1017.29 1017.30 1017.26 1017.16 1017.02 1016.85 1016.68 1016.53
1011.11 1011.23 1011.34 1011.48 1011.72 1012.08 1012.59 1013.22 1013.91 1014.59 1015.15 1015.53 1015.68 1015.59 1015.29 1014.88 1014.43 1014.07 1013.85 1013.84 1014.04 1014.42 1014.92 1015.47 1015.97 1016.39 1016.68 1016.84 1016.91 1016.91 1016.90 1016.91 1016.97 1017.08 1017.22 1017.36 1017.49 1017.56 1017.58 1017.52 1017.41 1017.26 1017.09 1016.93
1011.01 1011.13 1011.25 1011.41 1011.67 1012.04 1012.55 1013.16 1013.82 1014.45 1014.96 1015.29 1015.40 1015.28 1014.97 1014.55 1014.10 1013.74 1013.52 1013.51 1013.71 1014.08 1014.58 1015.12 1015.64 1016.07 1016.39 1016.59 1016.69 1016.74 1016.78 1016.83 1016.93 1017.08 1017.26 1017.45 1017.62 1017.74 1017.80 1017.79 1017.71 1017.59 1017.44 1017.28
1010.89 1011.03 1011.18 1011.37 1011.64 1012.00 1012.48 1013.04 1013.63 1014.18 1014.62 1014.90 1014.97 1014.84 1014.55 1014.15 1013.75 1013.43 1013.25 1013.25 1013.45 1013.82 1014.30 1014.83 1015.34 1015.78 1016.12 1016.35 1016.50 1016.59 1016.68 1016.77 1016.91 1017.09 1017.29 1017.51 1017.70 1017.85 1017.93 1017.95 1017.91 1017.81 1017.69 1017.55
1010.76 1010.95 1011.15 1011.37 1011.64 1011.99 1012.41 1012.89 1013.38 1013.83 1014.18 1014.39 1014.43 1014.31 1014.05 1013.71 1013.38 1013.12 1012.99 1013.03 1013.24 1013.60 1014.07 1014.58 1015.07 1015.51 1015.87 1016.13 1016.33 1016.47 1016.60 1016.74 1016.91 1017.11 1017.32 1017.54 1017.73 1017.89 1017.99 1018.02 1018.01 1017.94 1017.85 1017.74
1010.65 1010.91 1011.17 1011.43 1011.71 1012.02 1012.37 1012.74 1013.11 1013.43 1013.68 1013.81 1013.81 1013.69 1013.48 1013.22 1012.97 1012.79 1012.73 1012.81 1013.04 1013.39 1013.83 1014.32 1014.79 1015.23 1015.60 1015.90 1016.15 1016.35 1016.53 1016.72 1016.92 1017.13 1017.34 1017.55 1017.73 1017.87 1017.96 1018.01 1018.01 1017.98 1017.93 1017.86
1010.59 1010.94 1011.27 1011.57 1011.85 1012.12 1012.38 1012.63 1012.85 1013.03 1013.15 1013.19 1013.15 1013.03 1012.86 1012.67 1012.51 1012.41 1012.42 1012.54 1012.78 1013.12 1013.54 1013.99 1014.45 1014.88 1015.27 1015.61 1015.91 1016.18 1016.42 1016.65 1016.88 1017.11 1017.32 1017.50 1017.66 1017.78 1017.86 1017.91 1017.93 1017.93 1017.91 1017.89
1010.61 1011.05 1011.45 1011.79 1012.06 1012.28 1012.44 1012.55 1012.61 1012.63 1012.61 1012.55 1012.45 1012.32 1012.19 1012.06 1011.98 1011.97 1012.03 1012.19 1012.44 1012.77 1013.15 1013.57 1014.01 1014.43 1014.84 1015.22 1015.58 1015.91 1016.22 1016.51 1016.78 1017.01 1017.22 1017.39 1017.53 1017.63 1017.69 1017.74 1017.77 1017.79 1017.81 1017.83
1010.70 1011.21 1011.67 1012.04 1012.30 1012.45 1012.50 1012.46 1012.37 1012.23 1012.07 1011.90 1011.74 1011.59 1011.48 1011.41 1011.40 1011.45 1011.57 1011.76 1012.01 1012.32 1012.68 1013.06 1013.47 1013.89 1014.31 1014.73 1015.14 1015.54 1015.91 1016.26 1016.57 1016.83 1017.04 1017.21 1017.32 1017.40 1017.45 1017.49 1017.53 1017.57 1017.62 1017.67
1010.84 1011.40 1011.89 1012.25 1012.48 1012.56 1012.50 1012.33 1012.08 1011.79 1011.49 1011.22 1011.00 1010.84 1010.75 1010.73 1010.78 1010.89 1011.06 1011.28 1011.54 1011.83 1012.15 1012.50 1012.88 1013.28 1013.71 1014.16 1014.62 1015.08 1015.52 1015.92 1016.27 1016.56 1016.79 1016.95 1017.05 1017.12 1017.16 1017.19 1017.23 1017.27 1017.33 1017.39
1010.97 1011.54 1012.01 1012.35 1012.52 1012.52 1012.35 1012.05 1011.67 1011.26 1010.86 1010.51 1010.24 1010.08 1010.02 1010.05 1010.17 1010.34 1010.56 1010.81 1011.07 1011.35 1011.64 1011.96 1012.31 1012.70 1013.13 1013.60 1014.09 1014.59 1015.08 1015.53 1015.92 1016.24 1016.48 1016.65 1016.75 1016.80 1016.82 1016.84 1016.87 1016.91 1016.96 1017.00
1011.03 1011.55 1011.97 1012.25 1012.34 1012.25 1011.99 1011.59 1011.11 1010.61 1010.14 1009.75 1009.48 1009.33 1009.32 1009.42 1009.60 1009.85 1010.13 1010.41 1010.69 1010.97 1011.25 1011.54 1011.86 1012.22 1012.64 1013.11 1013.61 1014.14 1014.66 1015.14 1015.56 1015.91 1016.16 1016.33 1016.43 1016.47 1016.47 1016.47 1016.47 1016.48 1016.51 1016.53
1010.94 1011.37 1011.70 1011.89 1011.90 1011.72 1011.38 1010.92 1010.38 1009.83 1009.35 1008.96 1008.71 1008.62 1008.67 1008.86 1009.13 1009.46 1009.80 1010.14 1010.45 1010.74 1011.00 1011.27 1011.57 1011.91 1012.30 1012.76 1013.26 1013.79 1014.32 1014.81 1015.25 1015.60 1015.86 1016.03 1016.12 1016.14 1016.12 1016.08 1016.05 1016.02 1016.00 1015.98
1010.69 1010.99 1011.20 1011.28 1011.20 1010.96 1010.56 1010.06 1009.51 1008.97 1008.51 1008.17 1007.99 1007.97 1008.12 1008.40 1008.76 1009.18 1009.60 1010.00 1010.35 1010.65 1010.92 1011.18 1011.45 1011.76 1012.13 1012.56 1013.04 1013.55 1014.07 1014.56 1014.99 1015.34 1015.60 1015.75 1015.82 1015.81 1015.76 1015.68 1015.60 1015.53 1015.46 1015.39
1010.26 1010.42 1010.50 1010.48 1010.32 1010.02 1009.61 1009.11 1008.59 1008.10 1007.70 1007.43 1007.34 1007.42 1007.66 1008.03 1008.49 1008.99 1009.49 1009.94 1010.34 1010.67 1010.96 1011.21 1011.47 1011.75 1012.08 1012.48 1012.92 1013.41 1013.90 1014.37 1014.78 1015.11 1015.34 1015.47 1015.51 1015.47 1015.37 1015.25 1015.12 1015.00 1014.88 1014.78
1009.73 1009.74 1009.70 1009.58 1009.36 1009.04 1008.63 1008.16 1007.70 1007.28 1006.96 1006.79 1006.79 1006.95 1007.28 1007.74 1008.27 1008.84 1009.40 1009.91 1010.35 1010.71 1011.01 1011.26 1011.51 1011.77 1012.08 1012.44 1012.85 1013.29 1013.75 1014.18 1014.56 1014.86 1015.06 1015.16 1015.16 1015.08 1014.95 1014.78 1014.60 1014.43 1014.28 1014.14
1009.15 1009.04 1008.90 1008.71 1008.45 1008.12 1007.74 1007.33 1006.93 1006.60 1006.36 1006.27 1006.34 1006.57 1006.96 1007.47 1008.05 1008.66 1009.25 1009.79 1010.26 1010.64 1010.96 1011.22 1011.47 1011.73 1012.01 1012.34 1012.72 1013.12 1013.54 1013.94 1014.28 1014.55 1014.72 1014.78 1014.75 1014.64 1014.46 1014.25 1014.04 1013.83 1013.66 1013.51
1008.60 1008.40 1008.19 1007.96 1007.68 1007.37 1007.03 1006.68 1006.35 1006.08 1005.91 1005.88 1005.99 1006.25 1006.65 1007.17 1007.75 1008.36 1008.96 1009.51 1009.99 1010.39 1010.72 1011.00 1011.26 1011.51 1011.79 1012.10 1012.46 1012.84 1013.22 1013.59 1013.90 1014.14 1014.28 1014.32 1014.27 1014.12 1013.92 1013.68 1013.44 1013.22 1013.03 1012.89
1008.14 1007.88 1007.63 1007.38 1007.11 1006.82 1006.52 1006.22 1005.94 1005.73 1005.59 1005.58 1005.69 1005.94 1006.31 1006.79 1007.33 1007.91 1008.49 1009.02 1009.50 1009.91 1010.26 1010.56 1010.83 1011.10 1011.38 1011.69 1012.04 1012.40 1012.77 1013.12 1013.41 1013.63 1013.76 1013.79 1013.72 1013.56 1013.34 1013.10 1012.85 1012.62 1012.44 1012.31
Thickness
5831 5823 5817 5821 5825 5822 5818 5813 5809 5813 5822 5815 5810 5809 5814 5818 5815 5811 5808 5806 5803 5802 5804 5802 5799 5797 5793 5788 5784 5780 5777 5775 5773 5771 5769 5767 5766 5766 5766 5765 5763 5761 5760 5760
5819 5816 5829 5832 5827 5821 5815 5809 5809 5813 5819 5815 5810 5810 5818 5818 5815 5814 5810 5806 5805 5804 5803 5800 5798 5796 5792 5788 5784 5780 5776 5775 5772 5771 5769 5768 5766 5766 5765 5764 5762 5760 5759 5758
5813 5824 5833 5825 5819 5814 5814 5812 5811 5808 5812 5816 5810 5806 5812 5817 5818 5816 5815 5812 5810 5806 5802 5799 5797 5794 5792 5787 5784 5781 5777 5774 5772 5770 5770 5768 5764 5763 5763 5762 5760 5759 5757 5756
5819 5828 5824 5819 5817 5817 5810 5822 5816 5809 5804 5806 5806 5795 5808 5815 5812 5812 5812 5811 5810 5808 5805 5801 5797 5794 5792 5789 5786 5781 5777 5774 5771 5769 5767 5765 5762 5760 5761 5760 5760 5757 5755 5755
5815 5821 5817 5813 5818 5820 5817 5823 5817 5811 5805 5803 5806 5798 5808 5815 5807 5810 5812 5812 5811 5809 5806 5802 5799 5796 5794 5791 5787 5781 5776 5773 5770 5768 5766 5763 5762 5761 5761 5759 5757 5755 5754 5753
5820 5828 5824 5821 5825 5824 5820 5815 5811 5810 5806 5788 5799 5794 5797 5811 5808 5810 5812 5811 5810 5808 5806 5802 5800 5796 5792 5790 5786 5782 5776 5771 5769 5767 5765 5762 5760 5758 5757 5755 5753 5753 5753 5752
5807 5815 5823 5825 5812 5814 5813 5801 5790 5786 5787 5790 5802 5794 5797 5810 5813 5811 5808 5808 5809 5808 5804 5800 5795 5792 5788 5786 5784 5781 5775 5770 5768 5765 5763 5761 5758 5756 5754 5753 5751 5750 5751 5750
5796 5798 5813 5818 5813 5807 5808 5806 5786 5774 5781 5795 5795 5793 5803 5812 5813 5812 5810 5808 5806 5805 5803 5799 5794 5790 5786 5784 5782 5779 5774 5768 5766 5763 5761 5759 5757 5756 5755 5751 5751 5749 5748 5747
5799 5797 5814 5816 5818 5813 5803 5804 5813 5798 5793 5787 5795 5798 5803 5808 5804 5804 5804 5802 5800 5800 5799 5797 5794 5790 5786 5783 5779 5776 5771 5766 5763 5761 5759 5756 5754 5752 5751 5749 5747 5747 5744 5743
5804 5789 5804 5810 5812 5809 5810 5808 5800 5792 5772 5770 5785 5790 5791 5792 5794 5795 5795 5795 5795 5795 5795 5794 5792 5789 5786 5783 5779 5774 5769 5764 5761 5759 5756 5755 5751 5748 5746 5745 5743 5741 5740 5738
5803 5788 5792 5798 5793 5794 5794 5793 5791 5792 5789 5773 5771 5784 5799 5794 5793 5792 5792 5792 5792 5791 5791 5790 5789 5786 5784 5781 5776 5771 5766 5761 5758 5755 5752 5750 5748 5745 5743 5741 5739 5737 5735 5733
5795 5791 5783 5790 5800 5803 5798 5792 5788 5776 5773 5778 5775 5780 5800 5797 5796 5793 5790 5789 5788 5788 5788 5786 5784 5781 5778 5776 5772 5767 5763 5760 5756 5753 5749 5745 5743 5741 5739 5737 5735 5733 5730 5728
5788 5781 5767 5773 5780 5787 5785 5787 5789 5788 5781 5775 5770 5775 5794 5792 5789 5788 5786 5783 5782 5781 5781 5779 5777 5774 5771 5769 5766 5764 5761 5757 5754 5750 5746 5742 5739 5736 5734 5732 5730 5728 5725 5723
5784 5779 5770 5764 5773 5781 5775 5777 5780 5778 5775 5772 5773 5776 5781 5781 5780 5780 5780 5778 5777 5775 5773 5772 5769 5767 5765 5762 5760 5758 5757 5754 5751 5747 5742 5737 5735 5732 5729 5726 5724 5722 5720 5718
5778 5768 5770 5774 5779 5778 5774 5772 5772 5769 5772 5770 5773 5773 5775 5778 5777 5776 5775 5772 5769 5767 5766 5764 5762 5760 5758 5756 5754 5753 5751 5749 5746 5742 5738 5734 5730 5727 5724 5721 5719 5717 5715 5713
5769 5760 5761 5759 5768 5768 5763 5767 5768 5767 5768 5767 5767 5768 5779 5779 5776 5771 5769 5765 5762 5760 5759 5757 5755 5754 5753 5751 5749 5747 5745 5744 5741 5737 5734 5730 5725 5722 5718 5715 5713 5711 5709 5708
5758 5751 5746 5749 5757 5754 5749 5761 5763 5763 5766 5764 5758 5764 5770 5766 5764 5764 5763 5761 5758 5756 5753 5752 5750 5749 5748 5748 5745 5742 5741 5739 5736 5732 5729 5725 5721 5716 5713 5712 5708 5706 5704 5702
5746 5742 5743 5744 5738 5724 5753 5770 5765 5759 5761 5764 5761 5761 5762 5760 5761 5762 5762 5758 5753 5751 5748 5747 5746 5745 5744 5744 5742 5739 5736 5733 5730 5726 5723 5720 5716 5711 5708 5707 5704 5700 5698 5697
5747 5736 5735 5735 5729 5735 5750 5757 5756 5748 5748 5759 5754 5753 5753 5755 5753 5753 5755 5752 5748 5746 5744 5742 5742 5741 5738 5737 5736 5733 5730 5727 5724 5721 5718 5715 5711 5706 5703 5701 5699 5696 5693 5691
5736 5733 5729 5726 5718 5720 5741 5753 5756 5745 5735 5751 5749 5744 5743 5742 5736 5742 5746 5743 5741 5739 5738 5736 5735 5734 5731 5730 5729 5726 5724 5721 5718 5716 5713 5710 5707 5703 5699 5696 5694 5691 5688 5686
5718 5717 5718 5718 5717 5731 5743 5747 5743 5722 5727 5741 5742 5739 5736 5734 5735 5738 5738 5734 5732 5730 5728 5728 5727 5726 5725 5723 5721 5718 5717 5714 5713 5711 5708 5705 5702 5698 5695 5691 5688 5686 5683 5681
5716 5715 5711 5713 5709 5717 5736 5733 5725 5725 5733 5733 5733 5733 5730 5729 5728 5728 5726 5723 5721 5719 5719 5718 5717 5717 5717 5716 5714 5711 5709 5709 5707 5705 5702 5698 5696 5694 5692 5686 5683 5681 5677 5675
5714 5718 5719 5717 5717 5723 5727 5726 5726 5726 5724 5724 5725 5726 5723 5720 5718 5717 5716 5714 5713 5711 5711 5710 5710 5709 5709 5709 5707 5704 5703 5702 5700 5697 5695 5692 5690 5687 5685 5681 5679 5677 5674 5673
5707 5708 5708 5707 5714 5715 5718 5719 5719 5719 5718 5719 5719 5718 5716 5712 5711 5709 5707 5706 5705 5704 5703 5703 5702 5702 5701 5700 5700 5698 5696 5695 5693 5690 5688 5687 5685 5682 5679 5676 5676 5673 5671 5669
5697 5697 5698 5697 5703 5705 5708 5709 5711 5712 5712 5712 5712 5711 5709 5706 5704 5701 5699 5698 5697 5696 5696 5696 5695 5695 5694 5693 5692 5692 5690 5688 5686 5684 5682 5681 5680 5678 5674 5672 5669 5667 5665 5663
5690 5689 5687 5691 5697 5696 5699 5704 5705 5703 5702 5702 5702 5701 5702 5701 5697 5694 5692 5691 5690 5690 5689 5689 5688 5687 5687 5686 5685 5685 5683 5681 5679 5677 5676 5677 5676 5672 5671 5668 5664 5659 5657 5654